Time,TemperatureF,DewpointF,PressureIn,WindDirection,WindDirectionDegrees,WindSpeedMPH,WindSpeedGustMPH,Humidity,HourlyPrecipIn,Conditions,Clouds,dailyrainin,SoftwareType,DateUTC
2013-07-21 00:00:00,57.0,-99.9,-100.00,South,185,5.0,9.0,-999,-99.99,,,-99.99,,2013-07-21 06:00:00,
2013-07-21 00:53:00,57.0,-99.9,-100.00,South,185,5.0,9.0,-999,-99.99,,,-99.99,,2013-07-21 06:53:00,
2013-07-21 01:00:00,55.0,-99.9,-100.00,South,185,1.0,3.0,-999,-99.99,,,-99.99,,2013-07-21 07:00:00,
2013-07-21 01:53:00,55.0,-99.9,-100.00,South,185,1.0,3.0,-999,-99.99,,,-99.99,,2013-07-21 07:53:00,
2013-07-21 02:00:00,53.0,-99.9,-100.00,South,185,2.0,2.0,-999,-99.99,,,-99.99,,2013-07-21 08:00:00,
2013-07-21 02:52:00,53.0,-99.9,-100.00,South,185,2.0,2.0,-999,-99.99,,,-99.99,,2013-07-21 08:52:00,
2013-07-21 03:00:00,53.0,-99.9,-100.00,South,185,3.0,5.0,-999,-99.99,,,-99.99,,2013-07-21 09:00:00,
2013-07-21 03:52:00,53.0,-99.9,-100.00,South,185,3.0,5.0,-999,-99.99,,,-99.99,,2013-07-21 09:52:00,
2013-07-21 04:00:00,53.0,-99.9,-100.00,South,185,3.0,4.0,-999,-99.99,,,-99.99,,2013-07-21 10:00:00,
2013-07-21 04:53:00,53.0,-99.9,-100.00,South,185,3.0,4.0,-999,-99.99,,,-99.99,,2013-07-21 10:53:00,
2013-07-21 05:00:00,53.0,-99.9,-100.00,South,185,15.0,23.0,-999,-99.99,,,-99.99,,2013-07-21 11:00:00,
2013-07-21 05:52:00,53.0,-99.9,-100.00,South,185,15.0,23.0,-999,-99.99,,,-99.99,,2013-07-21 11:52:00,
2013-07-21 06:00:00,59.0,-99.9,-100.00,South,185,7.0,10.0,-999,-99.99,,,-99.99,,2013-07-21 12:00:00,
2013-07-21 06:53:00,59.0,-99.9,-100.00,South,185,7.0,10.0,-999,-99.99,,,-99.99,,2013-07-21 12:53:00,
2013-07-21 07:00:00,62.0,-99.9,-100.00,South,185,4.0,5.0,-999,-99.99,,,-99.99,,2013-07-21 13:00:00,
2013-07-21 07:53:00,62.0,-99.9,-100.00,South,185,4.0,5.0,-999,-99.99,,,-99.99,,2013-07-21 13:53:00,
2013-07-21 08:00:00,66.0,-99.9,-100.00,South,185,5.0,14.0,-999,-99.99,,,-99.99,,2013-07-21 14:00:00,
2013-07-21 08:53:00,66.0,-99.9,-100.00,South,185,5.0,14.0,-999,-99.99,,,-99.99,,2013-07-21 14:53:00,
2013-07-21 09:00:00,73.0,-99.9,-100.00,South,185,12.0,16.0,-999,-99.99,,,-99.99,,2013-07-21 15:00:00,
2013-07-21 09:53:00,73.0,-99.9,-100.00,South,185,12.0,16.0,-999,-99.99,,,-99.99,,2013-07-21 15:53:00,
2013-07-21 10:00:00,77.0,-99.9,-100.00,South,185,7.0,12.0,-999,-99.99,,,-99.99,,2013-07-21 16:00:00,
2013-07-21 10:40:00,80.0,-99.9,-100.00,South,185,7.0,11.0,-999,-99.99,,,-99.99,,2013-07-21 16:40:00,
2013-07-21 10:52:00,77.0,-99.9,-100.00,South,185,7.0,12.0,-999,-99.99,,,-99.99,,2013-07-21 16:52:00,
2013-07-21 11:00:00,78.0,-99.9,-100.00,South,185,7.0,12.0,-999,-99.99,,,-99.99,,2013-07-21 17:00:00,
2013-07-21 11:33:00,80.0,-99.9,-100.00,South,185,7.0,11.0,-999,-99.99,,,-99.99,,2013-07-21 17:33:00,
2013-07-21 11:53:00,78.0,-99.9,-100.00,South,185,7.0,12.0,-999,-99.99,,,-99.99,,2013-07-21 17:53:00,
2013-07-21 12:00:00,80.0,-99.9,-100.00,South,185,6.0,11.0,-999,-99.99,,,-99.99,,2013-07-21 18:00:00,
2013-07-21 12:52:00,80.0,-99.9,-100.00,South,185,6.0,11.0,-999,-99.99,,,-99.99,,2013-07-21 18:52:00,
2013-07-21 13:00:00,82.0,-99.9,-100.00,SSW,197,11.0,14.0,-999,-99.99,,,-99.99,,2013-07-21 19:00:00,
2013-07-21 13:52:00,82.0,-99.9,-100.00,SSW,197,11.0,14.0,-999,-99.99,,,-99.99,,2013-07-21 19:52:00,
2013-07-21 14:00:00,84.0,-99.9,-100.00,SW,215,8.0,15.0,-999,-99.99,,,-99.99,,2013-07-21 20:00:00,
2013-07-21 14:52:00,84.0,-99.9,-100.00,SW,215,8.0,15.0,-999,-99.99,,,-99.99,,2013-07-21 20:52:00,
2013-07-21 15:52:00,86.0,-99.9,-100.00,NE,50,10.0,16.0,-999,-99.99,,,-99.99,,2013-07-21 21:52:00,
2013-07-21 16:00:00,89.0,-99.9,-100.00,NE,50,7.0,17.0,-999,-99.99,,,-99.99,,2013-07-21 22:00:00,
2013-07-21 16:01:00,86.0,-99.9,-100.00,NE,50,10.0,16.0,-999,-99.99,,,-99.99,,2013-07-21 22:01:00,
2013-07-21 16:52:00,89.0,-99.9,-100.00,NE,50,7.0,17.0,-999,-99.99,,,-99.99,,2013-07-21 22:52:00,
2013-07-21 17:00:00,87.0,-99.9,-100.00,SW,230,8.0,12.0,-999,-99.99,,,-99.99,,2013-07-21 23:00:00,
2013-07-21 17:53:00,87.0,-99.9,-100.00,SW,230,8.0,12.0,-999,-99.99,,,-99.99,,2013-07-21 23:53:00,
2013-07-21 18:00:00,89.0,-99.9,-100.00,NE,50,8.0,9.0,-999,-99.99,,,-99.99,,2013-07-22 00:00:00,
2013-07-21 18:53:00,89.0,-99.9,-100.00,NE,50,8.0,9.0,-999,-99.99,,,-99.99,,2013-07-22 00:53:00,
2013-07-21 19:00:00,87.0,-99.9,-100.00,SW,229,3.0,7.0,-999,-99.99,,,-99.99,,2013-07-22 01:00:00,
2013-07-21 19:52:00,87.0,-99.9,-100.00,SW,229,3.0,7.0,-999,-99.99,,,-99.99,,2013-07-22 01:52:00,
2013-07-21 20:00:00,78.0,-99.9,-100.00,South,185,0.0,9.0,-999,-99.99,,,-99.99,,2013-07-22 02:00:00,
2013-07-21 20:52:00,78.0,-99.9,-100.00,South,185,0.0,9.0,-999,-99.99,,,-99.99,,2013-07-22 02:52:00,
2013-07-21 21:00:00,73.0,-99.9,-100.00,South,185,5.0,15.0,-999,-99.99,,,-99.99,,2013-07-22 03:00:00,
2013-07-21 21:53:00,73.0,-99.9,-100.00,South,185,5.0,15.0,-999,-99.99,,,-99.99,,2013-07-22 03:53:00,
2013-07-21 22:00:00,69.0,-99.9,-100.00,South,185,4.0,6.0,-999,-99.99,,,-99.99,,2013-07-22 04:00:00,
2013-07-21 23:00:00,73.0,-99.9,-100.00,South,185,1.0,5.0,-999,-99.99,,,-99.99,,2013-07-22 05:00:00,
2013-07-21 23:52:00,73.0,-99.9,-100.00,South,185,1.0,5.0,-999,-99.99,,,-99.99,,2013-07-22 05:52:00,